Terminal Aerodrome Forecast
Issued by NWS

Current Version | Previous Version | Graphics & Text | Print | Product List | Glossary On
Versions: 1 2 3 4 5 6 7 8 9 10 11 12 13 14 15 16 17 18 19 20 21 22 23 24
000
FTUS41 KPBZ 240900 AAB
TAFMGW
TAF AMD
KMGW 240921Z 2409/2506 00000KT 2SM BR SCT002
      TEMPO 2410/2412 1SM BR
     FM241300 27005KT P6SM BKN200=

USA.gov is the U.S. government's official web portal to all federal, state and local government web resources and services.